DW5247 Lemo FI current weather conditions

sailwx.info

Wind from 045 at 2 knots gusting 6

Air temperature 26.7° C
Dewpoint 20.3° C

Last reported at 2014-Jul-31 16:42 UTC.
Time now 2014-Jul-31 17:42 UTC

Location: N 62°41' E 029°49'.
View on Google Maps.

See reports from other nearby stations

  
Tides and Currents Weather Stations Pressure Air Temp Water Temp Dewpoint Dewpoint Depression Visibility Wind Speed Wind Dir Waves Ship Positions
date/time (UTC)wind fromknots sea level pressurealtimeterstation pressurevisibilityair tempwater tempwave heightnotes
2014-Jul-31 16:42 045 2 gusting 6 26.7
2014-Jul-31 16:37 068 2 gusting 6 26.7
2014-Jul-31 16:32 023 3 gusting 6 26.7
2014-Jul-31 16:27 068 3 gusting 6 26.7
2014-Jul-31 16:22 023 2 gusting 6 26.7
2014-Jul-31 16:17 270 2 gusting 6 26.7
2014-Jul-31 16:12 068 2 gusting 4 26.7
2014-Jul-31 16:07 045 2 gusting 5 26.7
2014-Jul-31 16:02 023 2 gusting 8 26.7
2014-Jul-31 15:57 023 2 gusting 8 26.7
2014-Jul-31 15:52 045 2 gusting 8 26.7
2014-Jul-31 15:47 023 2 gusting 4 26.7
2014-Jul-31 15:42 26.7
2014-Jul-31 15:37 045 2 gusting 5 26.7
2014-Jul-31 15:32 068 3 gusting 5 26.7
2014-Jul-31 15:27 045 3 gusting 4 26.7
2014-Jul-31 15:22 045 3 gusting 4 26.7
2014-Jul-31 15:17 068 3 gusting 4 26.7
2014-Jul-31 15:12 068 2 gusting 5 26.7
2014-Jul-31 15:07 090 3 gusting 7 26.7
2014-Jul-31 15:02 023 3 gusting 7 26.7
2014-Jul-31 14:57 26.7
2014-Jul-31 14:52 023 3 gusting 7 26.7
2014-Jul-31 14:47 068 3 gusting 7 26.7
2014-Jul-31 14:42 26.7
2014-Jul-31 14:37 023 3 gusting 5 26.7
2014-Jul-31 14:32 045 3 gusting 6 26.7
2014-Jul-31 14:27 023 3 gusting 6 26.7
2014-Jul-31 14:22 023 3 gusting 6 26.7
2014-Jul-31 14:17 045 4 gusting 7 26.7
2014-Jul-31 14:12 023 3 gusting 7 26.7
2014-Jul-31 14:07 023 3 gusting 5 26.1
2014-Jul-31 14:02 338 2 gusting 5 26.7
2014-Jul-31 13:57 090 3 gusting 6 26.1
2014-Jul-31 13:52 068 3 gusting 6 26.7
2014-Jul-31 13:47 26.7
2014-Jul-31 13:42 023 3 gusting 6 26.7
2014-Jul-31 13:37 023 3 gusting 7 26.7
2014-Jul-31 13:32 023 4 gusting 7 27.2
2014-Jul-31 13:27 023 4 gusting 7 27.2
2014-Jul-31 13:22 023 3 gusting 9 27.8
2014-Jul-31 13:17 090 4 gusting 9 27.8
2014-Jul-31 13:12 045 5 gusting 9 28.3
2014-Jul-31 13:07 068 4 gusting 6 28.3
2014-Jul-31 13:02 023 4 gusting 6 28.3
2014-Jul-31 12:57 068 4 gusting 7 28.3
2014-Jul-31 12:52 023 3 gusting 7 28.3
2014-Jul-31 12:47 090 3 gusting 7 28.3
2014-Jul-31 12:42 068 3 gusting 11 28.3
2014-Jul-31 12:37 068 3 gusting 11 28.3
2014-Jul-31 12:32 068 3 gusting 11 28.3
2014-Jul-31 12:27 068 4 gusting 10 28.3
2014-Jul-31 12:22 023 4 gusting 10 28.3
2014-Jul-31 12:17 068 3 gusting 10 28.3
2014-Jul-31 12:12 023 3 gusting 10 28.3
2014-Jul-31 12:07 023 3 gusting 9 28.3
2014-Jul-31 12:02 068 3 gusting 9 27.8
2014-Jul-31 11:57 068 3 gusting 7 27.8
2014-Jul-31 11:52 045 4 gusting 7 27.8
2014-Jul-31 11:47 023 3 gusting 7 27.8
2014-Jul-31 11:42 023 3 gusting 8 27.8
2014-Jul-31 11:37 045 3 gusting 8 27.8
2014-Jul-31 11:32 180 3 gusting 11 27.8
2014-Jul-31 11:27 023 5 gusting 11 27.8
2014-Jul-31 11:22 068 4 gusting 9 27.2
2014-Jul-31 11:17 045 3 gusting 9 27.8
2014-Jul-31 11:12 023 4 gusting 6 27.2
2014-Jul-31 11:07 068 3 gusting 6 27.2
2014-Jul-31 11:02 068 3 gusting 5 27.2
2014-Jul-31 10:57 045 2 gusting 5 26.7
2014-Jul-31 10:52 068 2 gusting 5 26.7
2014-Jul-31 10:47 023 2 gusting 3 26.7
2014-Jul-31 10:42 135 2 gusting 3 26.7
2014-Jul-31 10:37 068 2 gusting 6 26.7
2014-Jul-31 10:32 045 2 gusting 6 26.1
2014-Jul-31 10:27 023 3 gusting 6 26.1
2014-Jul-31 10:22 023 3 gusting 5 26.1
2014-Jul-31 10:17 023 3 gusting 5 26.1
2014-Jul-31 10:12 068 1 gusting 5 25.6
2014-Jul-31 10:07 068 2 gusting 4 25.6
2014-Jul-31 10:02 113 2 gusting 4 25.6
2014-Jul-31 09:57 023 2 gusting 4 25.0
2014-Jul-31 09:52 023 2 gusting 4 25.0
2014-Jul-31 09:47 023 1 gusting 4 24.4
2014-Jul-31 09:42 068 1 gusting 4 24.4
2014-Jul-31 09:37 23.9
2014-Jul-31 09:32 023 0 gusting 3 23.9
2014-Jul-31 09:27 068 1 gusting 3 23.3
2014-Jul-31 09:22 158 1 gusting 2 23.3
2014-Jul-31 09:17 023 1 gusting 2 22.8
2014-Jul-31 09:12 068 1 gusting 3 22.8
2014-Jul-31 09:07 068 1 gusting 3 22.2
2014-Jul-31 09:02 068 1 gusting 3 22.2
2014-Jul-31 08:57 023 1 gusting 4 22.2
2014-Jul-31 08:52 045 2 gusting 4 22.2
2014-Jul-31 08:47 113 2 gusting 4 21.7
2014-Jul-31 08:42 023 2 gusting 4 21.7
2014-Jul-31 08:37 21.7
2014-Jul-31 08:32 090 2 gusting 5 21.1
2014-Jul-31 08:27 113 2 gusting 6 21.1
2014-Jul-31 08:22 023 2 gusting 6 21.1
2014-Jul-31 08:17 023 2 gusting 6 21.1
2014-Jul-31 08:12 20.6
2014-Jul-31 08:07 20.6
2014-Jul-31 08:02 045 2 gusting 5 20.6
2014-Jul-31 07:57 023 2 gusting 5 20.6
2014-Jul-31 07:52 135 3 gusting 6 20.0
2014-Jul-31 07:47 315 3 gusting 6 20.0
2014-Jul-31 07:42 045 3 gusting 6 20.0
2014-Jul-31 07:37 023 3 gusting 3 20.0
2014-Jul-31 07:32 023 1 gusting 4 19.4
2014-Jul-31 07:27 19.4
2014-Jul-31 07:22 045 2 gusting 4 19.4
2014-Jul-31 07:17 023 2 gusting 5 19.4
2014-Jul-31 07:12 113 3 gusting 6 19.4
2014-Jul-31 07:07 023 3 gusting 6 19.4
2014-Jul-31 07:02 023 2 gusting 5 19.4
2014-Jul-31 06:57 023 2 gusting 5 19.4
2014-Jul-31 06:52 135 1 gusting 4 19.4
2014-Jul-31 06:47 338 1 gusting 4 19.4
2014-Jul-31 06:42 023 1 gusting 6 18.9
2014-Jul-31 06:37 068 1 gusting 6 18.9
2014-Jul-31 06:32 023 2 gusting 6 18.9
2014-Jul-31 06:27 023 2 gusting 6 18.9
2014-Jul-31 06:22 023 2 gusting 5 18.3
2014-Jul-31 06:17 068 2 gusting 5 18.3
2014-Jul-31 06:12 023 2 gusting 5 18.3
2014-Jul-31 06:07 045 1 gusting 5 18.3
2014-Jul-31 06:02 023 2 gusting 6 18.3
2014-Jul-31 05:57 023 2 gusting 6 18.3
2014-Jul-31 05:52 023 2 gusting 4 18.3
2014-Jul-31 05:47 023 2 gusting 3 17.8
2014-Jul-31 04:47 023 0 gusting 3 16.1
2014-Jul-31 04:42 023 0 gusting 3 16.1
2014-Jul-31 04:37 068 0 gusting 3 16.1
2014-Jul-31 04:32 023 1 gusting 4 16.1
2014-Jul-31 04:27 068 1 gusting 4 16.1
2014-Jul-31 04:22 023 1 gusting 4 16.1
2014-Jul-31 04:17 16.1
2014-Jul-31 04:12 023 1 gusting 3 16.1
2014-Jul-31 04:07 023 1 gusting 3 16.1
2014-Jul-31 04:02 023 1 gusting 3 16.1
2014-Jul-31 03:57 023 1 gusting 4 16.1
2014-Jul-31 03:52 113 1 gusting 4 15.6
2014-Jul-31 03:47 045 1 gusting 4 15.6
2014-Jul-31 03:42 023 1 gusting 4 15.6
2014-Jul-31 03:37 023 2 gusting 4 15.6
2014-Jul-31 03:32 023 2 gusting 6 15.6
2014-Jul-31 03:27 023 3 gusting 6 15.6
2014-Jul-31 03:22 023 3 gusting 6 15.6
2014-Jul-31 03:17 023 3 gusting 3 15.6
2014-Jul-31 03:12 023 3 gusting 3 15.6
2014-Jul-31 03:07 023 2 gusting 5 15.6
2014-Jul-31 03:02 023 2 gusting 5 15.6
2014-Jul-31 02:57 023 2 gusting 5 15.6
2014-Jul-31 02:53 023 2 gusting 4 15.6
2014-Jul-31 02:47 023 2 gusting 4 15.6
2014-Jul-31 02:42 023 2 gusting 3 15.6
2014-Jul-31 02:37 338 1 gusting 3 15.6
2014-Jul-31 02:32 315 1 gusting 3 16.1
2014-Jul-31 02:27 023 1 gusting 3 16.1
2014-Jul-31 02:22 16.1
2014-Jul-31 02:17 315 1 gusting 4 15.6
2014-Jul-31 02:12 023 1 gusting 5 15.6
2014-Jul-31 02:07 16.1
2014-Jul-31 02:02 023 2 gusting 5 16.1
2014-Jul-31 01:57 023 0 gusting 1 16.1
2014-Jul-31 01:52 045 0 gusting 3 16.1
2014-Jul-31 01:47 16.1
2014-Jul-31 01:42 045 0 gusting 2 16.1
2014-Jul-31 01:37 090 0 gusting 2 15.6
2014-Jul-31 01:32 113 0 gusting 2 16.1
2014-Jul-31 01:27 045 16.1
2014-Jul-31 01:22 068 16.1
2014-Jul-31 01:17 023 16.1
2014-Jul-31 01:12 045 0 gusting 4 16.1
2014-Jul-31 01:07 045 2 gusting 4 16.1
2014-Jul-31 01:02 023 3 gusting 3 16.1
2014-Jul-31 00:57 023 2 gusting 3 16.1
2014-Jul-31 00:52 023 1 gusting 3 16.1
2014-Jul-31 00:47 023 1 gusting 3 16.1
2014-Jul-31 00:42 023 1 gusting 2 16.7
2014-Jul-31 00:37 023 0 gusting 2 16.7
2014-Jul-31 00:32 023 0 gusting 2 16.7
2014-Jul-31 00:27 045 0 gusting 2 16.7
2014-Jul-31 00:22 023 0 gusting 2 16.7
2014-Jul-31 00:17 045 0 gusting 2 16.7
2014-Jul-31 00:12 023 0 gusting 2 16.7
2014-Jul-31 00:07 023 16.7
2014-Jul-31 00:02 023 16.7
2014-Jul-30 23:57 023 16.7
2014-Jul-30 23:52 023 16.7
2014-Jul-30 23:47 045 0 gusting 3 16.7
2014-Jul-30 23:42 270 0 gusting 3 16.7
2014-Jul-30 23:37 023 1 gusting 2 16.7
2014-Jul-30 23:32 023 1 gusting 4 16.7
2014-Jul-30 23:27 023 1 gusting 4 16.7
2014-Jul-30 23:22 023 1 gusting 3 16.7
2014-Jul-30 23:17 023 1 gusting 3 16.7
2014-Jul-30 23:12 023 1 gusting 3 16.7
2014-Jul-30 23:07 023 1 gusting 3 16.7
2014-Jul-30 23:02 023 1 gusting 3 16.7
2014-Jul-30 22:57 023 1 gusting 3 16.7
2014-Jul-30 22:52 023 1 gusting 3 16.7
2014-Jul-30 22:47 16.7
2014-Jul-30 22:42 023 0 gusting 1 16.7
2014-Jul-30 22:37 023 0 gusting 2 16.7
2014-Jul-30 22:32 023 0 gusting 2 17.2
2014-Jul-30 22:27 023 0 gusting 2 17.2
2014-Jul-30 22:22 023 0 gusting 2 17.2
2014-Jul-30 22:17 023 1 gusting 2 17.2
2014-Jul-30 22:12 023 1 gusting 2 17.2
2014-Jul-30 22:07 315 1 gusting 2 17.2
2014-Jul-30 22:02 023 1 gusting 3 17.2
2014-Jul-30 21:57 023 1 gusting 4 17.2
2014-Jul-30 21:52 023 2 gusting 4 17.2
2014-Jul-30 21:47 023 2 gusting 4 17.2
2014-Jul-30 21:42 023 1 gusting 2 17.2
2014-Jul-30 21:37 023 1 gusting 2 17.2
2014-Jul-30 21:32 023 1 gusting 2 16.7
2014-Jul-30 21:27 023 1 gusting 2 16.7
2014-Jul-30 21:22 023 1 gusting 2 16.7
2014-Jul-30 21:17 023 1 gusting 2 16.7
2014-Jul-30 21:12 023 1 gusting 0 16.7
2014-Jul-30 21:07 023 16.7
2014-Jul-30 20:57 023 16.7
2014-Jul-30 20:52 023 16.7
2014-Jul-30 20:47 023 16.7
2014-Jul-30 20:42 023 17.2
2014-Jul-30 20:37 023 17.2
2014-Jul-30 20:32 023 17.2
2014-Jul-30 20:27 023 17.2
2014-Jul-30 20:22 023 17.8
2014-Jul-30 20:17 023 17.8
2014-Jul-30 20:12 023 17.8
2014-Jul-30 20:07 023 17.8
2014-Jul-30 20:02 023 17.8
2014-Jul-30 19:57 023 17.8
2014-Jul-30 19:52 023 18.3
2014-Jul-30 19:47 023 18.3
2014-Jul-30 19:42 023 18.3
2014-Jul-30 19:27 023 18.9
2014-Jul-30 19:22 023 18.9
2014-Jul-30 19:17 023 19.4
2014-Jul-30 19:12 023 19.4
2014-Jul-30 19:07 023 19.4
2014-Jul-30 19:02 023 19.4
2014-Jul-30 18:57 023 19.4
2014-Jul-30 18:52 023 20.0
2014-Jul-30 18:47 023 20.0
2014-Jul-30 18:42 023 20.0
2014-Jul-30 18:37 023 20.6
2014-Jul-30 18:32 023 20.6
2014-Jul-30 18:27 023 20.6
2014-Jul-30 18:22 023 0 gusting 2 20.6
2014-Jul-30 18:17 023 0 gusting 3 20.6
2014-Jul-30 18:12 023 0 gusting 3 20.6
2014-Jul-30 18:07 023 1 gusting 3 21.1
2014-Jul-30 18:02 023 1 gusting 1 21.1
2014-Jul-30 17:57 045 0 gusting 1 21.1
2014-Jul-30 17:52 023 0 gusting 3 21.7
2014-Jul-30 17:47 023 0 gusting 3 21.7
2014-Jul-30 17:42 023 1 gusting 3 21.7
2014-Jul-30 17:37 023 1 gusting 3 21.7
2014-Jul-30 17:32 023 0 gusting 2 21.7
2014-Jul-30 17:27 023 0 gusting 1 21.7
2014-Jul-30 17:22 023 21.7
2014-Jul-30 17:17 023 0 gusting 2 21.7
2014-Jul-30 17:12 023 0 gusting 2 22.2
2014-Jul-30 17:07 023 0 gusting 2 22.2
2014-Jul-30 17:02 045 0 gusting 2 22.2
2014-Jul-30 16:57 045 0 gusting 2 22.2
2014-Jul-30 16:52 023 0 gusting 2 22.2
2014-Jul-30 16:47 023 0 gusting 3 22.2
2014-Jul-30 16:42 090 1 gusting 4 22.2
2014-Jul-30 16:37 023 1 gusting 4 22.2
2014-Jul-30 16:32 023 0 gusting 4 22.2
2014-Jul-30 16:27 023 0 gusting 2 22.2
2014-Jul-30 16:22 090 0 gusting 2 22.2
2014-Jul-30 16:17 045 0 gusting 3 22.2
2014-Jul-30 16:12 023 1 gusting 3 22.2
2014-Jul-30 16:07 090 1 gusting 4 22.2
2014-Jul-30 16:02 023 1 gusting 4 22.2
2014-Jul-30 15:57 22.2
2014-Jul-30 15:52 023 1 gusting 3 22.2
2014-Jul-30 15:47 068 1 gusting 4 22.2
2014-Jul-30 15:42 023 1 gusting 4 22.2
2014-Jul-30 15:37 023 1 gusting 4 22.2
2014-Jul-30 15:32 023 1 gusting 3 22.2
2014-Jul-30 15:27 045 0 gusting 3 22.2
2014-Jul-30 15:22 023 0 gusting 3 22.2
2014-Jul-30 15:17 023 0 gusting 3 22.2
2014-Jul-30 15:12 023 1 gusting 2 22.2
2014-Jul-30 15:07 023 1 gusting 2 22.2
2014-Jul-30 15:02 045 1 gusting 4 22.2
2014-Jul-30 14:57 023 1 gusting 4 22.2
2014-Jul-30 14:52 023 1 gusting 4 22.2
2014-Jul-30 14:47 113 1 gusting 4 22.2
2014-Jul-30 14:42 090 1 gusting 5 22.2
2014-Jul-30 14:37 068 1 gusting 5 22.2
2014-Jul-30 14:32 068 1 gusting 3 21.7
2014-Jul-30 14:27 023 0 gusting 1 21.7
2014-Jul-30 14:22 068 21.7
2014-Jul-30 14:17 21.7
2014-Jul-30 14:12 023 0 gusting 2 22.2
2014-Jul-30 14:07 023 22.2
2014-Jul-30 14:02 090 22.2
2014-Jul-30 13:57 023 0 gusting 4 22.2
2014-Jul-30 13:52 023 1 gusting 4 22.2
2014-Jul-30 13:47 068 2 gusting 4 22.2
2014-Jul-30 13:42 023 1 gusting 3 22.2
2014-Jul-30 13:37 180 0 gusting 1 22.2
2014-Jul-30 13:32 315 0 gusting 1 22.2
2014-Jul-30 13:27 135 0 gusting 1 22.2
2014-Jul-30 13:22 158 0 gusting 2 22.2
2014-Jul-30 13:17 068 0 gusting 3 21.7
2014-Jul-30 13:12 068 1 gusting 3 21.7
2014-Jul-30 13:07 045 1 gusting 3 21.7
2014-Jul-30 13:02 045 0 gusting 1 21.7
2014-Jul-30 12:57 135 0 gusting 3 21.7
2014-Jul-30 12:52 023 0 gusting 3 21.7
2014-Jul-30 12:47 090 0 gusting 3 21.7
2014-Jul-30 12:42 045 0 gusting 1 21.7
2014-Jul-30 12:37 068 21.7
2014-Jul-30 12:32 068 0 gusting 3 21.7
2014-Jul-30 12:27 023 1 gusting 3 21.7
2014-Jul-30 12:22 068 1 gusting 3 21.7
2014-Jul-30 12:17 338 1 gusting 3 21.7
2014-Jul-30 12:12 180 1 gusting 3 21.1
2014-Jul-30 12:07 023 1 gusting 3 21.1
2014-Jul-30 12:02 113 1 gusting 3 21.1
2014-Jul-30 11:57 023 1 gusting 3 21.1
2014-Jul-30 11:52 023 1 gusting 3 20.6
2014-Jul-30 11:47 023 0 gusting 6 20.6
2014-Jul-30 11:42 248 0 gusting 6 20.6
2014-Jul-30 11:37 023 1 gusting 6 20.6
2014-Jul-30 11:32 023 1 gusting 5 20.6
2014-Jul-30 11:27 225 1 gusting 5 20.6
2014-Jul-30 11:22 20.0
2014-Jul-30 11:17 180 0 gusting 6 20.0
2014-Jul-30 11:12 023 1 gusting 6 20.0
2014-Jul-30 11:07 338 3 gusting 6 20.0
2014-Jul-30 11:02 315 2 gusting 6 19.4
2014-Jul-30 10:57 315 2 gusting 6 19.4
2014-Jul-30 10:52 315 2 gusting 5 19.4
2014-Jul-30 10:47 315 0 gusting 3 19.4
2014-Jul-30 10:42 023 1 gusting 3 19.4
2014-Jul-30 10:37 023 1 gusting 5 19.4
2014-Jul-30 10:32 023 2 gusting 5 19.4
2014-Jul-30 10:27 113 2 gusting 5 18.9
2014-Jul-30 10:22 315 1 gusting 4 18.9
2014-Jul-30 10:17 113 1 gusting 3 18.9
2014-Jul-30 10:12 023 1 gusting 3 18.9
2014-Jul-30 10:07 270 1 gusting 3 18.9
2014-Jul-30 10:02 315 1 gusting 3 18.3
2014-Jul-30 09:57 315 1 gusting 3 18.3
2014-Jul-30 09:52 338 1 gusting 4 18.3
2014-Jul-30 09:47 315 1 gusting 4 18.3
2014-Jul-30 09:42 338 2 gusting 6 18.3
2014-Jul-30 09:37 315 1 gusting 6 18.3
2014-Jul-30 09:32 023 0 gusting 6 18.3
2014-Jul-30 09:27 315 1 gusting 6 18.3
2014-Jul-30 09:22 18.3
2014-Jul-30 09:17 338 3 gusting 6 17.8
2014-Jul-30 09:12 338 2 gusting 2 18.3
2014-Jul-30 09:07 023 0 gusting 3 17.8
2014-Jul-30 09:02 023 0 gusting 3 17.8
2014-Jul-30 08:57 045 1 gusting 3 17.8
2014-Jul-30 08:52 023 1 gusting 3 17.8
2014-Jul-30 08:47 045 1 gusting 3 17.8
2014-Jul-30 08:42 248 0 gusting 3 17.2
2014-Jul-30 08:37 023 0 gusting 4 17.2
2014-Jul-30 08:32 023 1 gusting 6 16.7
2014-Jul-30 08:27 338 2 gusting 6 16.7
2014-Jul-30 08:22 16.7
2014-Jul-30 08:17 315 2 gusting 3 16.7
2014-Jul-30 08:12 023 0 gusting 2 16.7
2014-Jul-30 08:07 315 0 gusting 5 16.7
2014-Jul-30 08:02 023 1 gusting 5 16.7
2014-Jul-30 07:57 023 3 gusting 5 16.7
2014-Jul-30 07:52 315 2 gusting 5 16.7
2014-Jul-30 07:47 338 1 gusting 3 16.1
2014-Jul-30 07:42 315 0 gusting 5 16.1
2014-Jul-30 07:37 045 2 gusting 5 16.7
2014-Jul-30 07:32 338 3 gusting 5 16.1
2014-Jul-30 07:27 023 2 gusting 3 16.1
2014-Jul-30 07:22 315 1 gusting 6 16.1
2014-Jul-30 07:17 023 2 gusting 6 16.1
2014-Jul-30 07:12 315 2 gusting 5 15.6
2014-Jul-30 07:07 315 2 gusting 5 15.6
2014-Jul-30 07:02 338 2 gusting 5 15.6
2014-Jul-30 06:57 293 2 gusting 3 15.6
2014-Jul-30 06:52 293 2 gusting 5 15.6
2014-Jul-30 06:47 315 2 gusting 5 15.6
2014-Jul-30 06:42 315 2 gusting 5 15.6
2014-Jul-30 06:37 315 1 gusting 4 15.6
2014-Jul-30 06:32 315 1 gusting 2 15.6
2014-Jul-30 06:27 023 0 gusting 2 15.6
2014-Jul-30 06:22 023 1 gusting 4 15.6
2014-Jul-30 06:17 023 1 gusting 4 15.6
2014-Jul-30 06:12 293 1 gusting 4 15.6
2014-Jul-30 06:07 338 1 gusting 2 15.6
2014-Jul-30 06:02 023 1 gusting 2 15.6
2014-Jul-30 05:57 15.6
2014-Jul-30 05:52 068 1 gusting 2 15.6
2014-Jul-30 05:47 023 1 gusting 3 15.6
2014-Jul-30 05:42 338 2 gusting 6 15.0
2014-Jul-30 05:37 270 2 gusting 6 15.0
2014-Jul-30 05:32 315 1 gusting 6 15.0
2014-Jul-30 05:27 338 2 gusting 6 15.0
2014-Jul-30 05:22 315 3 gusting 6 15.0
2014-Jul-30 05:17 338 4 gusting 6 15.0
2014-Jul-30 05:12 315 4 gusting 6 15.0
2014-Jul-30 05:07 315 5 gusting 6 15.0
2014-Jul-30 05:02 315 4 gusting 6 15.0
2014-Jul-30 04:57 315 4 gusting 6 15.0
2014-Jul-30 04:52 315 3 gusting 6 15.0
2014-Jul-30 04:47 15.6
2014-Jul-30 04:42 293 2 gusting 4 15.0
2014-Jul-30 04:37 023 1 gusting 6 15.0
2014-Jul-30 04:32 338 2 gusting 6 15.6
2014-Jul-30 04:27 315 3 gusting 6 15.0
2014-Jul-30 04:22 315 3 gusting 5 15.6
2014-Jul-30 04:17 293 3 gusting 7 15.6
2014-Jul-30 04:12 315 3 gusting 7 15.6
2014-Jul-30 04:07 315 2 gusting 3 15.6
2014-Jul-30 04:02 315 1 gusting 4 15.6
2014-Jul-30 03:57 315 2 gusting 4 15.0
2014-Jul-30 03:52 338 2 gusting 4 15.0
2014-Jul-30 03:47 315 2 gusting 7 15.0
2014-Jul-30 03:42 315 2 gusting 7 15.6
2014-Jul-30 03:37 15.0
2014-Jul-30 03:32 315 2 gusting 4 15.6
2014-Jul-30 03:27 338 2 gusting 5 15.0
2014-Jul-30 03:22 338 2 gusting 5 15.0
2014-Jul-30 03:17 315 1 gusting 5 15.0
2014-Jul-30 03:12 315 0 gusting 0 15.0
2014-Jul-30 03:07 315 15.0
2014-Jul-30 03:02 315 15.0
2014-Jul-30 02:57 315 15.0
2014-Jul-30 02:52 315 0 gusting 2 15.0
2014-Jul-30 02:47 315 1 gusting 1 15.0
2014-Jul-30 02:42 293 0 gusting 2 15.0
2014-Jul-30 02:37 315 0 gusting 2 15.0
2014-Jul-30 02:32 315 0 gusting 3 15.0
2014-Jul-30 02:27 315 1 gusting 3 15.0
2014-Jul-30 02:22 338 1 gusting 3 15.0
2014-Jul-30 02:17 293 1 gusting 3 15.0
2014-Jul-30 02:12 293 1 gusting 3 15.0
2014-Jul-30 02:07 315 0 gusting 1 15.0
2014-Jul-30 02:02 338 15.0
2014-Jul-30 01:57 338 15.0
2014-Jul-30 01:52 338 15.0
2014-Jul-30 01:47 338 15.0
2014-Jul-30 01:42 338 0 gusting 3 15.0
2014-Jul-30 01:37 338 1 gusting 3 15.0
2014-Jul-30 01:32 315 1 gusting 2 15.0
2014-Jul-30 01:27 338 1 gusting 2 15.0
2014-Jul-30 01:22 315 1 gusting 1 15.0
2014-Jul-30 01:17 315 0 gusting 3 15.0
2014-Jul-30 01:12 338 1 gusting 3 15.0
2014-Jul-30 01:07 315 1 gusting 3 15.0
2014-Jul-30 01:02 315 2 gusting 3 15.6
2014-Jul-30 00:57 338 1 gusting 3 15.0
2014-Jul-30 00:52 315 0 gusting 3 15.6
2014-Jul-30 00:47 338 0 gusting 2 15.6
2014-Jul-30 00:42 315 1 gusting 3 15.6
2014-Jul-30 00:37 315 1 gusting 3 15.6
2014-Jul-30 00:32 338 1 gusting 3 15.6
2014-Jul-30 00:27 338 1 gusting 2 15.6
2014-Jul-30 00:22 315 0 gusting 2 15.6
2014-Jul-30 00:17 15.6
2014-Jul-30 00:12 293 1 gusting 2 15.6
2014-Jul-30 00:07 338 1 gusting 3 15.6
2014-Jul-30 00:02 338 1 gusting 3 16.1
2014-Jul-29 23:57 315 1 gusting 3 15.6
2014-Jul-29 23:52 315 1 gusting 3 16.1
2014-Jul-29 23:47 315 1 gusting 3 16.1
2014-Jul-29 23:42 315 1 gusting 3 16.1
2014-Jul-29 23:37 315 1 gusting 4 16.1
2014-Jul-29 23:32 315 2 gusting 4 16.1
2014-Jul-29 23:27 338 2 gusting 5 16.1
2014-Jul-29 23:22 315 2 gusting 5 16.1
2014-Jul-29 23:17 338 2 gusting 5 16.1
2014-Jul-29 23:12 315 2 gusting 5 16.7
2014-Jul-29 23:07 315 1 gusting 5 16.7
2014-Jul-29 23:02 293 1 gusting 3 16.7
2014-Jul-29 22:57 315 1 gusting 2 16.7
2014-Jul-29 22:52 315 1 gusting 2 16.7
2014-Jul-29 22:47 293 0 gusting 2 16.7
2014-Jul-29 22:42 293 0 gusting 2 16.7
2014-Jul-29 22:37 248 0 gusting 2 16.7
2014-Jul-29 22:32 315 1 gusting 2 16.7
2014-Jul-29 22:27 315 1 gusting 2 16.7
2014-Jul-29 22:22 293 0 gusting 2 16.7
2014-Jul-29 22:17 315 0 gusting 2 16.7
2014-Jul-29 22:12 338 16.7
2014-Jul-29 22:07 293 0 gusting 5 16.7
2014-Jul-29 22:02 270 1 gusting 3 17.2
2014-Jul-29 21:57 270 0 gusting 3 17.2
2014-Jul-29 21:52 248 0 gusting 0 17.2
2014-Jul-29 21:47 293 17.2
2014-Jul-29 21:42 293 0 gusting 2 17.2
2014-Jul-29 21:37 315 0 gusting 2 16.7
2014-Jul-29 21:32 315 16.7
2014-Jul-29 21:27 158 16.7
2014-Jul-29 21:22 158 17.2
2014-Jul-29 21:17 158 17.2
2014-Jul-29 21:12 158 17.2
2014-Jul-29 21:07 158 17.2
2014-Jul-29 20:57 158 17.2
2014-Jul-29 20:52 158 17.8
2014-Jul-29 20:47 158 17.2
2014-Jul-29 20:42 158 17.8
2014-Jul-29 20:37 158 17.8
2014-Jul-29 20:32 158 17.8
2014-Jul-29 20:27 158 17.8
2014-Jul-29 20:22 158 17.8
2014-Jul-29 20:17 158 17.8
2014-Jul-29 20:12 158 17.8
2014-Jul-29 20:07 158 17.8
2014-Jul-29 20:02 180 17.8
2014-Jul-29 19:57 180 18.3
2014-Jul-29 19:52 180 0 gusting 3 17.8
2014-Jul-29 19:47 135 1 gusting 3 17.8
2014-Jul-29 19:42 225 1 gusting 3 18.3
2014-Jul-29 19:37 158 1 gusting 3 18.3
2014-Jul-29 19:32 158 1 gusting 2 18.3
2014-Jul-29 19:27 180 1 gusting 2 18.3
2014-Jul-29 19:22 158 0 gusting 2 18.3
2014-Jul-29 19:17 203 0 gusting 2 18.3
2014-Jul-29 19:12 135 0 gusting 1 18.3
2014-Jul-29 19:07 158 0 gusting 1 18.3
2014-Jul-29 19:02 180 18.3
2014-Jul-29 18:57 203 18.3
2014-Jul-29 18:52 158 0 gusting 1 18.9
2014-Jul-29 18:47 180 0 gusting 1 18.9
2014-Jul-29 18:42 180 0 gusting 2 18.9
2014-Jul-29 18:37 090 0 gusting 2 18.9
2014-Jul-29 18:32 180 0 gusting 2 18.9
2014-Jul-29 18:27 158 0 gusting 2 18.9
2014-Jul-29 18:22 293 0 gusting 2 18.9
2014-Jul-29 18:17 270 1 gusting 2 18.9
2014-Jul-29 18:12 180 1 gusting 2 18.9
2014-Jul-29 18:07 158 0 gusting 2 18.9
2014-Jul-29 18:02 135 0 gusting 1 18.9
2014-Jul-29 17:57 158 0 gusting 1 18.9
2014-Jul-29 17:52 158 1 gusting 1 18.9
2014-Jul-29 17:47 180 0 gusting 1 18.9
2014-Jul-29 17:42 158 0 gusting 1 18.9
2014-Jul-29 17:37 158 0 gusting 2 18.9
2014-Jul-29 17:32 225 0 gusting 3 19.4
2014-Jul-29 17:27 248 0 gusting 3 19.4
2014-Jul-29 17:22 180 1 gusting 3 19.4
2014-Jul-29 17:17 180 0 gusting 3 19.4
2014-Jul-29 17:12 203 19.4
2014-Jul-29 17:07 158 0 gusting 3 19.4
2014-Jul-29 17:02 180 0 gusting 2 19.4